This is the latest recevied weather packets stored in our database for station/object KD9JB-1. If no packets are shown the sender has not sent any weather packets the latest 10 day(s).
| Time | Temp. | Humidity | Pressure | Rain* | Wind** | Luminosity | Snow |
|---|---|---|---|---|---|---|---|
| 1777849300 | 19.44° C | 41% | 1012.5 hPa | 0 mm | - | - | - |
| 1777849000 | 19.44° C | 40% | 1012.6 hPa | 0 mm | - | - | - |
| 1777848700 | 19.44° C | 40% | 1012.7 hPa | 0 mm | - | - | - |
| 1777848400 | 19.44° C | 40% | 1012.7 hPa | 0 mm | - | - | - |
| 1777848100 | 20° C | 40% | 1012.6 hPa | 0 mm | - | - | - |
| 1777847800 | 19.44° C | 41% | 1012.7 hPa | 0 mm | - | - | - |
| 1777847500 | 19.44° C | 41% | 1012.8 hPa | 0 mm | - | - | - |
| 1777847200 | 20° C | 40% | 1013 hPa | 0 mm | - | - | - |
| 1777846900 | 20° C | 40% | 1013.1 hPa | 0 mm | - | - | - |
| 1777846600 | 20° C | 41% | 1013.1 hPa | 0 mm | - | - | - |
| 1777846300 | 20° C | 42% | 1013.5 hPa | 0 mm | - | - | - |
| 1777846000 | 20° C | 41% | 1013.4 hPa | 0 mm | - | - | - |
| 1777845700 | 19.44° C | 40% | 1013.5 hPa | 0 mm | - | - | - |
| 1777845400 | 19.44° C | 42% | 1013.7 hPa | 0 mm | - | - | - |
| 1777845100 | 20° C | 40% | 1013.7 hPa | 0 mm | - | - | - |
| 1777844800 | 20° C | 41% | 1013.7 hPa | 0 mm | - | - | - |
| 1777844500 | 20° C | 40% | 1013.8 hPa | 0 mm | - | - | - |
| 1777844200 | 20° C | 42% | 1013.9 hPa | 0 mm | - | - | - |
| 1777843900 | 20° C | 44% | 1014 hPa | 0 mm | - | - | - |
| 1777843600 | 20° C | 42% | 1014.2 hPa | 0 mm | - | - | - |
| 1777843300 | 20° C | 43% | 1014.5 hPa | 0 mm | - | - | - |
| 1777843000 | 20° C | 40% | 1014.7 hPa | 0 mm | - | - | - |
| 1777842700 | 20° C | 40% | 1014.6 hPa | 0 mm | - | - | - |
| 1777842400 | 20° C | 41% | 1014.7 hPa | 0 mm | - | - | - |
| 1777842100 | 20° C | 41% | 1014.7 hPa | 0 mm | - | - | - |
* Rain latest hour (hover to see other rain measurements)
** Current wind speed in m/s (hover to see current wind gust speed)